Olathe New Century, KS

8:01 AM CDT on June 24, 2017 (GMT -0500)
New Century Aircenter

Weather History for KIXD - July, 2013

Change the Weather History Date:

Sunday, July 14, 2013

  Actual Average Record
Temperature  
Mean Temperature 77 °F -  
Max Temperature 89 °F 87 °F 99 °F (2012)
Min Temperature 66 °F 66 °F 59 °F (2002)
Cooling Degree Days 12    
Growing Degree Days 27 (Base 50)    
Moisture  
Dew Point 58 °F    
Average Humidity 54    
Maximum Humidity 81    
Minimum Humidity 32    
Precipitation  
Precipitation 0.00 in - - ()
Sea Level Pressure  
Sea Level Pressure 30.03 in    
Wind  
Wind Speed 8 mph (ESE)    
Max Wind Speed 18 mph    
Max Gust Speed 24 mph    
Visibility 10 miles    
Events      
Averages and records for this station are not official NWS values.
T = Trace of Precipitation, MM = Missing Value Source: NWS Daily Summary

Daily Weather History Graph

Daily Weather History Graph

Search for Another Location

Airport or City:

Trip Planner

Search our weather history database for the weather conditions in past years. The results will help you decide how hot, cold, wet, or windy it might be!

Date:

Astronomy

Jul. 14, 2013 Rise Set
Actual Time 6:06 AM CDT 8:44 PM CDT
Civil Twilight 5:35 AM CDT 9:15 PM CDT
Nautical Twilight 4:56 AM CDT 9:54 PM CDT
Astronomical Twilight 4:12 AM CDT 10:37 PM CDT
Moon 12:19 PM CDT (7/14) No Moon Set
Length of Visible Light 15h 40m
Length of Day
14h 38m
Waxing Crescent, 35% of the Moon is Illuminated
Jul 14
Waxing Crescent
Jul 15
First Quarter
Jul 22
Full
Jul 29
Last Quarter
Aug 6
New

Hourly Weather History & Observations

Time (CDT) Temp. Heat Index Dew Point Humidity Pressure Visibility Wind Dir Wind Speed Gust Speed Precip Events Conditions
12:53 AM 73.9 °F - 61.0 °F 64% 30.01 in 10.0 mi East 5.8 mph - N/A   Mostly Cloudy
1:53 AM 73.0 °F - 61.0 °F 66% 30.01 in 10.0 mi ESE 5.8 mph - N/A   Scattered Clouds
2:53 AM 71.1 °F - 62.1 °F 73% 30.00 in 10.0 mi East 5.8 mph - N/A   Clear
3:53 AM 69.1 °F - 61.0 °F 75% 29.99 in 10.0 mi East 5.8 mph - N/A   Partly Cloudy
4:53 AM 66.9 °F - 61.0 °F 81% 30.00 in 10.0 mi East 4.6 mph - N/A   Clear
5:53 AM 66.0 °F - 60.1 °F 81% 30.01 in 10.0 mi East 3.5 mph - N/A   Clear
6:53 AM 66.0 °F - 60.1 °F 81% 30.02 in 10.0 mi East 4.6 mph - N/A   Clear
7:53 AM 71.1 °F - 60.1 °F 68% 30.03 in 10.0 mi ESE 8.1 mph - N/A   Clear
8:53 AM 75.0 °F - 60.1 °F 60% 30.03 in 10.0 mi SE 13.8 mph - N/A   Clear
9:53 AM 79.0 °F - 59.0 °F 50% 30.04 in 10.0 mi SE 15.0 mph 23.0 mph N/A   Clear
10:53 AM 82.9 °F 82.6 °F 57.9 °F 42% 30.04 in 10.0 mi SSE 13.8 mph 21.9 mph N/A   Clear
11:53 AM 84.9 °F 83.9 °F 57.0 °F 38% 30.05 in 10.0 mi SE 18.4 mph 23.0 mph N/A   Partly Cloudy
12:53 PM 84.9 °F 83.9 °F 57.0 °F 38% 30.04 in 10.0 mi ESE 16.1 mph 21.9 mph N/A   Partly Cloudy
1:53 PM 84.9 °F 83.7 °F 55.9 °F 37% 30.04 in 10.0 mi ESE 11.5 mph 21.9 mph N/A   Partly Cloudy
2:53 PM 84.9 °F 83.9 °F 57.0 °F 38% 30.03 in 10.0 mi East 13.8 mph 24.2 mph N/A   Scattered Clouds
3:53 PM 88.0 °F 86.1 °F 55.0 °F 32% 30.02 in 10.0 mi ESE 16.1 mph 23.0 mph N/A   Clear
4:53 PM 88.0 °F 86.1 °F 55.0 °F 32% 30.03 in 10.0 mi East 13.8 mph - N/A   Partly Cloudy
5:53 PM 86.0 °F 84.0 °F 53.1 °F 32% 30.02 in 10.0 mi ESE 11.5 mph 18.4 mph N/A   Clear
6:53 PM 84.9 °F 83.6 °F 55.0 °F 36% 30.03 in 10.0 mi East 11.5 mph - N/A   Clear
7:53 PM 82.0 °F 81.7 °F 57.0 °F 42% 30.04 in 10.0 mi ESE 10.4 mph - N/A   Clear
8:53 PM 78.1 °F - 57.0 °F 48% 30.06 in 10.0 mi ENE 5.8 mph - N/A   Clear
9:53 PM 73.9 °F - 57.9 °F 57% 30.07 in 10.0 mi ENE 5.8 mph - N/A   Clear
10:53 PM 72.0 °F - 57.9 °F 61% 30.09 in 9.0 mi ENE 3.5 mph - N/A   Clear
11:53 PM 73.0 °F - 57.9 °F 59% 30.10 in 10.0 mi ENE 5.8 mph - N/A   Clear